x

Portland 12 Nm Southeast Of Portland,me (44007) Wave Buoy

3:50 - Fri 26th Dec 2014 All times are EST. -5 hours from GMT.

  • Sig Wave height 3.0ft
  • Swell Direction
  • Peak Period 9s
  • Average Period 4s
  • Wind
    20mph, 25mph gusts
  • Sea Temp 44°f
  • Aire Temp 43°f
  • Sea Pressure 1012.8mb
  • Portland 12 Nm Southeast Of Portland,me
  • Portland 12 Nm Southeast Of Portland,me

More Historic Weather Station data

Upgrade to MSW Pro to gain access to the past 30 days of data for over 8000 Wavebouys and Weather Stations around the globe.

Join Pro

Comparision Forecast

View Surf forecast
   
vie 12/26 3:50 3ft 9s 4s 20 25 mph 1012.8mb 44f 43f
2:50 3.5ft 9s 5s 18 22 mph 1013.1mb 44f 43f
1:50 3.5ft 9s 5s 20 25 mph 1012.3mb 44f 44f
12:50 4ft 9s 5s 20 22 mph 1011.4mb 44f 44f
jue 12/25 11:50 4.5ft 10s 5s 20 22 mph 1010.5mb 44f 44f
10:50 4ft 9s 5s 22 27 mph 1009.9mb 43f 45f
9:50 4.5ft 9s 5s 20 25 mph 1009.6mb 43f 45f
8:50 4.5ft 7s 5s 25 31 mph 1008.2mb 42f 46f
7:50 4ft 5s 5s 25 29 mph 1006.9mb 42f 46f
6:50 3.5ft 7s 5s 20 29 mph 1005.9mb 42f 47f
5:50 3.5ft 7s 5s 16 18 mph 1004.7mb 43f 46f
4:50 4.5ft 7s 5s 25 34 mph 1003.2mb 43f 48f
3:50 4.5ft 7s 5s 25 29 mph 1001.8mb 43f 49f
2:50 4.5ft 7s 5s 27 36 mph 1000.1mb 43f 49f
1:50 5ft 7s 5s 27 36 mph 998.8mb 44f 49f
12:50 5.5ft 7s 6s 20 27 mph 998mb 44f 48f
11:50 6ft 8s 6s 20 25 mph 997.8mb 44f 47f
10:50 6.5ft 7s 6s 13 16 mph 997.8mb 44f 46f
9:50 6ft 8s 6s 16 20 mph 997.2mb 43f 47f
8:50 6ft 7s 6s 20 27 mph 997mb 43f 47f
7:50 5ft 8s 6s 7 11 mph 996.5mb 42f 44f
6:50 5.5ft 7s 6s 4 7 mph 997.4mb 42f 41f
5:50 5.5ft 7s 6s  -  2 mph 997.1mb 42f 41f
4:50 4.5ft 6s 6s 2 4 mph 998mb 44f 40f
3:50 4.5ft 6s 6s 4
mph
998.9mb 44f 39f
2:50 4.5ft 6s 6s 9
mph
998.8mb 44f 39f
1:50 4.5ft 7s 6s 11 13 mph 999.5mb 44f 39f
12:50 4.5ft 8s 6s 9 11 mph 1000.2mb 44f 39f
mié 12/24 11:50 4.5ft 8s 6s 11 16 mph 1001.2mb 44f 39f
10:50 4ft 7s 6s 11 13 mph 1002.3mb 43f 39f
9:50 4.5ft 8s 6s 11 13 mph 1003.5mb 43f 39f
8:50 4ft 8s 6s 13 16 mph 1005.1mb 43f 39f
7:50 4ft 8s 6s 16 18 mph 1006.9mb 43f 40f
6:50 4.5ft 8s 6s 16 18 mph 1008.3mb 43f 40f
5:50 4.5ft 8s 6s 13 18 mph 1009mb 43f 40f
4:50 4.5ft 9s 5s 16
mph
1010.3mb 44f 40f
3:50 4ft 7s 5s 16 20 mph 1011.1mb 44f 40f
2:50 4.5ft 8s 5s 18 20 mph 1012.5mb 44f 40f
1:50 5ft 8s 6s 13 16 mph 1013.4mb 44f 40f
12:50 5ft 8s 5s 13 16 mph 1014.2mb 44f 40f
11:50 5ft 8s 5s 16 18 mph 1016.3mb 44f 39f
10:50 5ft 8s 6s 16 18 mph 1017.4mb 44f 39f
9:50 5.5ft 8s 6s 16 18 mph 1018.3mb 44f 40f
8:50 6ft 8s 6s 16 18 mph 1018.9mb 44f 39f
7:50 5ft 8s 6s 16 20 mph 1020.2mb 43f 39f
6:50 5ft 9s 6s 18 22 mph 1020.5mb 44f 39f
5:50 6ft 8s 6s 18 20 mph 1020.7mb 44f 38f
4:50 6ft 9s 6s 16 20 mph 1021mb 44f 39f
3:50 5.5ft 8s 6s 18 20 mph 1020.9mb 44f 39f
2:50 5.5ft 8s 6s 20 22 mph 1021.3mb 44f 39f
1:50 6ft 8s 6s 20 22 mph 1022mb 44f 38f
12:50 6ft 8s 6s 16 20 mph 1022.3mb 44f 39f
mar 12/23 11:50 6ft 8s 6s 18 20 mph 1022.4mb 44f 39f
10:50 7ft 8s 6s 18 20 mph 1022.8mb 44f 39f
9:50 7ft 8s 6s 18 22 mph 1023mb 44f 39f
8:50 6ft 8s 6s 18 22 mph 1023.6mb 44f 39f
7:50 7ft 8s 6s 18 22 mph 1023.7mb 44f 39f
6:50 6.5ft 8s 6s 20 22 mph 1023.6mb 44f 39f
5:50 6.5ft 8s 6s 20 25 mph 1024mb 44f 39f
4:50 7ft 8s 6s 16 18 mph 1024.1mb 45f 42f
3:50 6.5ft 8s 6s 16 18 mph 1024.3mb 45f 43f
2:50 7ft 8s 6s 18 22 mph 1023.7mb 45f 43f
1:50 6ft 8s 6s 20 22 mph 1023.8mb 45f 43f
12:50 6.5ft 8s 6s 18 22 mph 1023.9mb 45f 43f
11:50 7ft 8s 6s 20 22 mph 1024.5mb 45f 42f
10:50 7ft 8s 6s 22 25 mph 1025.6mb 45f 42f
9:50 6ft 8s 5s 22 27 mph 1026.6mb 45f 42f
8:50 6ft 7s 5s 22 27 mph 1026.4mb 44f 42f
7:50 6ft 7s 5s 20 25 mph 1027.2mb 44f 42f
6:50 5.5ft 8s 5s 18 22 mph 1027.3mb 44f 42f
5:50 5ft 6s 5s 22 27 mph 1025.7mb 44f 42f
4:50 4.5ft 6s 5s 20 25 mph 1026.2mb 44f 42f
3:50 4ft 6s 5s 16 18 mph 1026.6mb 44f 43f
2:50 4ft 6s 5s 16 20 mph 1026.7mb 44f 44f
1:50 4.5ft 6s 5s 16 18 mph 1027mb 44f 43f
12:50 4ft 6s 5s 16 20 mph 1026.5mb 44f 43f
lun 12/22 11:50 4ft 6s 5s 18 22 mph 1026.4mb 44f 43f
10:50 3.5ft 6s 5s 16 22 mph 1026.9mb 44f 44f
9:50 3.5ft 7s 5s 18 20 mph 1027mb 44f 43f
8:50 3.5ft 7s 5s 13 16 mph 1027.8mb 44f 40f
7:50 3ft 8s 4s 18 20 mph 1027.7mb 44f 40f
6:50 3ft 7s 4s 16 18 mph 1028.5mb 44f 40f
5:50 3ft 8s 4s 16 18 mph 1028.2mb 44f 40f
4:50 3ft 8s 4s 18 20 mph 1027.7mb 43f 40f
3:50 2.5ft 8s 4s 18 22 mph 1027.8mb 43f 40f
2:50 2.5ft 6s 4s 13 16 mph 1028.3mb 43f 40f
1:50 2.5ft 6s 4s 11 13 mph 1028.2mb 43f 39f
12:50 2.5ft 6s 5s 13
mph
1027.8mb 43f 38f
11:50 2.5ft 6s 5s 13
mph
1028.2mb 43f 37f
10:50 2.5ft 6s 5s 11 13 mph 1029.3mb 42f 36f
9:50 2.5ft 7s 5s 13 16 mph 1029.7mb 42f 35f